User: anonymous   Login
Location: Unspecified
(0.0000°N, 0.0000°E)
Time: 09:18:07
(UTC+00:00)
Language:

COSMOS-2409 - Orbit

View from above orbital plane
View from above orbital plane
View from above satellite
View from above satellite

Ground track
Ground track

The orbit data is extracted from the following two-line orbital elements,

1 28420U 04037B   17268.92892736 +.00000002 +00000-0 -57944-4 0  9996
2 28420 082.4884 163.6022 0014683 058.7923 301.4590 12.45270029591243
Epoch (UTC): 25 September 2017 22:17:39
Eccentricity: 0.0014683
inclination: 82.4884°
perigee height: 1473 km
apogee height: 1496 km
right ascension of ascending node: 163.6022°
argument of perigee: 58.7923°
revolutions per day: 12.45270029
mean anomaly at epoch: 301.4590°
orbit number at epoch: 59124

The dashed part of the orbit path shows where the satellite is in the earth's shadow,  

DLR